Location: Aero Estates Airport (historical)
(33.2985°N, 96.8642°W)
Time: 22:59:24
(UTC+00:00)

Tiangong - Visible Passes

Search period start: 17 January 2026 00:00
Search period end: 27 January 2026 00:00
Orbit: 378 x 394 km, 41.5° (Epoch: 17 January)

Date Brightness Start Highest point End Pass type
(mag) Time Alt. Az. Time Alt. Az. Time Alt. Az.
17 Jan -2.0 12:16:38 24° SW 12:18:24 75° SSE 12:21:37 10° ENE visible
18 Jan 0.5 11:20:51 21° E 11:20:51 21° E 11:22:11 10° ENE visible
18 Jan -1.3 12:53:08 10° W 12:56:05 34° NNW 12:59:04 10° NE visible
19 Jan -1.7 11:57:05 51° N 11:57:05 51° N 11:59:50 10° NE visible
20 Jan -0.7 12:33:07 19° NW 12:34:26 24° NNW 12:37:08 10° NE visible
21 Jan 0.3 11:36:44 18° NE 11:36:44 18° NE 11:37:51 10° NE visible
22 Jan -0.4 12:12:28 20° NNW 12:12:41 20° N 12:15:08 10° NE visible
23 Jan -0.1 12:48:13 10° NW 12:50:33 19° N 12:52:54 10° NE visible
24 Jan 0.1 11:51:27 17° NNE 11:51:27 17° NNE 11:53:08 10° NE visible
25 Jan -0.3 12:26:57 15° NNW 12:28:36 21° N 12:31:08 10° ENE visible
26 Jan 0.6 11:30:13 15° NE 11:30:13 15° NE 11:31:09 10° NE visible
